Time,TemperatureF,DewpointF,PressureIn,WindDirection,WindDirectionDegrees,WindSpeedMPH,WindSpeedGustMPH,Humidity,HourlyPrecipIn,Conditions,Clouds,dailyrainin,SolarRadiationWatts/m^2,SoftwareType,DateUTC
2013-04-09 00:02:00,37.0,36.0,-100.00,SSE,165,1.0,3.0,96,0.00,,,0.00,0.000000,,2013-04-09 07:02:00,
2013-04-09 00:12:00,37.0,36.0,-100.00,SSE,165,1.0,3.0,96,0.00,,,0.00,0.000000,,2013-04-09 07:12:00,
2013-04-09 00:22:00,37.0,36.0,-100.00,SSE,165,1.0,3.0,96,0.00,,,0.00,0.000000,,2013-04-09 07:22:00,
2013-04-09 00:52:00,36.0,35.0,-100.00,ENE,77,0.0,3.0,96,0.00,,,0.00,0.000000,,2013-04-09 07:52:00,
2013-04-09 01:02:00,36.0,35.0,-100.00,ENE,77,0.0,3.0,96,0.00,,,0.00,0.000000,,2013-04-09 08:02:00,
2013-04-09 01:12:00,36.0,35.0,-100.00,ENE,77,0.0,3.0,96,0.00,,,0.00,0.000000,,2013-04-09 08:12:00,
2013-04-09 01:22:00,36.0,35.0,-100.00,ENE,77,0.0,3.0,96,0.00,,,0.00,0.000000,,2013-04-09 08:22:00,
2013-04-09 01:52:00,36.0,35.0,-100.00,South,176,0.0,3.0,96,0.00,,,0.00,0.000000,,2013-04-09 08:52:00,
2013-04-09 02:02:00,36.0,35.0,-100.00,South,176,0.0,3.0,96,0.00,,,0.00,0.000000,,2013-04-09 09:02:00,
2013-04-09 02:12:00,36.0,35.0,-100.00,South,176,0.0,3.0,96,0.00,,,0.00,0.000000,,2013-04-09 09:12:00,
2013-04-09 02:22:00,36.0,35.0,-100.00,South,176,0.0,3.0,96,0.00,,,0.00,0.000000,,2013-04-09 09:22:00,
2013-04-09 02:52:00,35.0,34.0,-100.00,WSW,242,1.0,3.0,96,0.00,,,0.00,0.000000,,2013-04-09 09:52:00,
2013-04-09 03:03:00,35.0,34.0,-100.00,WSW,242,1.0,3.0,96,0.00,,,0.00,0.000000,,2013-04-09 10:03:00,
2013-04-09 03:12:00,35.0,34.0,-100.00,WSW,242,1.0,3.0,96,0.00,,,0.00,0.000000,,2013-04-09 10:12:00,
2013-04-09 03:23:00,35.0,34.0,-100.00,WSW,242,1.0,3.0,96,0.00,,,0.00,0.000000,,2013-04-09 10:23:00,
2013-04-09 03:53:00,36.0,35.0,-100.00,ESE,114,0.0,3.0,97,0.00,,,0.00,0.000000,,2013-04-09 10:53:00,
2013-04-09 04:02:00,36.0,35.0,-100.00,ESE,114,0.0,3.0,97,0.00,,,0.00,0.000000,,2013-04-09 11:02:00,
2013-04-09 04:12:00,36.0,35.0,-100.00,ESE,114,0.0,3.0,97,0.00,,,0.00,0.000000,,2013-04-09 11:12:00,
2013-04-09 04:22:00,36.0,35.0,-100.00,ESE,114,0.0,3.0,97,0.00,,,0.00,0.000000,,2013-04-09 11:22:00,
2013-04-09 04:52:00,36.0,35.0,-100.00,WNW,296,1.0,3.0,96,0.00,,,0.00,0.000000,,2013-04-09 11:52:00,
2013-04-09 05:02:00,36.0,35.0,-100.00,WNW,296,1.0,3.0,96,0.00,,,0.00,0.000000,,2013-04-09 12:02:00,
2013-04-09 05:12:00,36.0,35.0,-100.00,WNW,296,1.0,3.0,96,0.00,,,0.00,0.000000,,2013-04-09 12:12:00,
2013-04-09 05:22:00,36.0,35.0,-100.00,WNW,296,1.0,3.0,96,0.00,,,0.00,0.000000,,2013-04-09 12:22:00,
2013-04-09 05:53:00,36.0,34.0,-100.00,WNW,293,1.0,2.0,94,0.00,,,0.00,0.000000,,2013-04-09 12:53:00,
2013-04-09 06:02:00,36.0,34.0,-100.00,WNW,293,1.0,2.0,94,0.00,,,0.00,0.000000,,2013-04-09 13:02:00,
2013-04-09 06:12:00,36.0,34.0,-100.00,WNW,293,1.0,2.0,94,0.00,,,0.00,0.000000,,2013-04-09 13:12:00,
2013-04-09 06:22:00,36.0,34.0,-100.00,WNW,293,1.0,2.0,94,0.00,,,0.00,0.000000,,2013-04-09 13:22:00,
2013-04-09 06:53:00,36.0,34.0,-100.00,WNW,292,1.0,3.0,94,0.00,,,0.00,0.000000,,2013-04-09 13:53:00,
2013-04-09 07:02:00,36.0,34.0,-100.00,WNW,292,1.0,3.0,94,0.00,,,0.00,0.000000,,2013-04-09 14:02:00,
2013-04-09 07:12:00,36.0,34.0,-100.00,WNW,292,1.0,3.0,94,0.00,,,0.00,0.000000,,2013-04-09 14:12:00,
2013-04-09 07:22:00,36.0,34.0,-100.00,WNW,292,1.0,3.0,94,0.00,,,0.00,0.000000,,2013-04-09 14:22:00,
2013-04-09 07:52:00,37.0,35.0,-100.00,SSE,166,1.0,3.0,94,0.00,,,0.00,9.000000,,2013-04-09 14:52:00,
2013-04-09 08:02:00,37.0,35.0,-100.00,SSE,166,1.0,3.0,94,0.00,,,0.00,9.000000,,2013-04-09 15:02:00,
2013-04-09 08:12:00,37.0,35.0,-100.00,SSE,166,1.0,3.0,94,0.00,,,0.00,9.000000,,2013-04-09 15:12:00,
2013-04-09 08:22:00,37.0,35.0,-100.00,SSE,166,1.0,3.0,94,0.00,,,0.00,9.000000,,2013-04-09 15:22:00,
2013-04-09 08:53:00,37.0,35.0,-100.00,NNE,20,0.0,3.0,93,0.01,,,0.01,58.000000,,2013-04-09 15:53:00,
2013-04-09 09:03:00,37.0,35.0,-100.00,NNE,20,0.0,3.0,93,0.01,,,0.01,58.000000,,2013-04-09 16:03:00,
2013-04-09 09:13:00,37.0,35.0,-100.00,NNE,20,0.0,3.0,93,0.01,,,0.01,58.000000,,2013-04-09 16:13:00,
2013-04-09 09:23:00,37.0,35.0,-100.00,NNE,20,0.0,3.0,93,0.01,,,0.01,58.000000,,2013-04-09 16:23:00,
2013-04-09 09:53:00,39.0,37.0,-100.00,North,349,0.0,4.0,93,0.00,,,0.01,108.000000,,2013-04-09 16:53:00,
2013-04-09 10:02:00,39.0,37.0,-100.00,North,349,0.0,4.0,93,0.00,,,0.01,108.000000,,2013-04-09 17:02:00,
2013-04-09 10:12:00,39.0,37.0,-100.00,North,349,0.0,4.0,93,0.00,,,0.01,108.000000,,2013-04-09 17:12:00,
2013-04-09 10:22:00,39.0,37.0,-100.00,North,349,0.0,4.0,93,0.00,,,0.01,108.000000,,2013-04-09 17:22:00,
2013-04-09 10:54:00,39.0,37.0,-100.00,NNE,29,2.0,4.0,93,0.01,,,0.02,112.000000,,2013-04-09 17:54:00,
2013-04-09 11:02:00,39.0,37.0,-100.00,NNE,29,2.0,4.0,93,0.01,,,0.02,112.000000,,2013-04-09 18:02:00,
2013-04-09 11:12:00,39.0,37.0,-100.00,NNE,29,2.0,4.0,93,0.01,,,0.02,112.000000,,2013-04-09 18:12:00,
2013-04-09 11:22:00,39.0,37.0,-100.00,NNE,29,2.0,4.0,93,0.01,,,0.02,112.000000,,2013-04-09 18:22:00,
2013-04-09 11:53:00,40.0,38.0,-100.00,NE,48,1.0,3.0,91,0.00,,,0.02,158.000000,,2013-04-09 18:53:00,
2013-04-09 12:02:00,40.0,38.0,-100.00,NE,48,1.0,3.0,91,0.00,,,0.02,158.000000,,2013-04-09 19:02:00,
2013-04-09 12:11:00,40.0,38.0,-100.00,NE,48,1.0,3.0,91,0.00,,,0.02,158.000000,,2013-04-09 19:11:00,
2013-04-09 12:22:00,40.0,38.0,-100.00,NE,48,1.0,3.0,91,0.00,,,0.02,158.000000,,2013-04-09 19:22:00,
2013-04-09 12:52:00,44.0,37.0,-100.00,WNW,301,2.0,6.0,76,0.00,,,0.02,246.000000,,2013-04-09 19:52:00,
2013-04-09 13:02:00,44.0,37.0,-100.00,WNW,301,2.0,6.0,76,0.00,,,0.02,246.000000,,2013-04-09 20:02:00,
2013-04-09 13:12:00,44.0,37.0,-100.00,WNW,301,2.0,6.0,76,0.00,,,0.02,246.000000,,2013-04-09 20:12:00,
2013-04-09 13:22:00,44.0,37.0,-100.00,WNW,301,2.0,6.0,76,0.00,,,0.02,246.000000,,2013-04-09 20:22:00,
2013-04-09 13:52:00,45.0,33.0,-100.00,NE,45,1.0,9.0,63,0.00,,,0.02,294.000000,,2013-04-09 20:52:00,
2013-04-09 14:02:00,45.0,33.0,-100.00,NE,45,1.0,9.0,63,0.00,,,0.02,294.000000,,2013-04-09 21:02:00,
2013-04-09 14:12:00,45.0,33.0,-100.00,NE,45,1.0,9.0,63,0.00,,,0.02,294.000000,,2013-04-09 21:12:00,
2013-04-09 14:22:00,45.0,33.0,-100.00,NE,45,1.0,9.0,63,0.00,,,0.02,294.000000,,2013-04-09 21:22:00,
2013-04-09 14:53:00,45.0,34.0,-100.00,West,266,1.0,16.0,65,0.00,,,0.02,217.000000,,2013-04-09 21:53:00,
2013-04-09 15:03:00,45.0,34.0,-100.00,West,266,1.0,16.0,65,0.00,,,0.02,217.000000,,2013-04-09 22:03:00,
2013-04-09 15:12:00,45.0,34.0,-100.00,West,266,1.0,16.0,65,0.00,,,0.02,217.000000,,2013-04-09 22:12:00,
2013-04-09 15:22:00,45.0,34.0,-100.00,West,266,1.0,16.0,65,0.00,,,0.02,217.000000,,2013-04-09 22:22:00,
2013-04-09 15:53:00,44.0,36.0,-100.00,SSW,193,1.0,6.0,74,0.00,,,0.02,149.000000,,2013-04-09 22:53:00,
2013-04-09 16:02:00,44.0,36.0,-100.00,SSW,193,1.0,6.0,74,0.00,,,0.02,149.000000,,2013-04-09 23:02:00,
2013-04-09 16:12:00,44.0,36.0,-100.00,SSW,193,1.0,6.0,74,0.00,,,0.02,149.000000,,2013-04-09 23:12:00,
2013-04-09 16:22:00,44.0,36.0,-100.00,SSW,193,1.0,6.0,74,0.00,,,0.02,149.000000,,2013-04-09 23:22:00,
2013-04-09 16:53:00,42.0,38.0,-100.00,North,357,2.0,8.0,84,0.00,,,0.02,132.000000,,2013-04-09 23:53:00,
2013-04-09 17:03:00,42.0,38.0,-100.00,North,357,2.0,8.0,84,0.00,,,0.02,132.000000,,2013-04-10 00:03:00,
2013-04-09 17:12:00,42.0,38.0,-100.00,North,357,2.0,8.0,84,0.00,,,0.02,132.000000,,2013-04-10 00:12:00,
2013-04-09 17:22:00,42.0,38.0,-100.00,North,357,2.0,8.0,84,0.00,,,0.02,132.000000,,2013-04-10 00:22:00,
2013-04-09 17:52:00,43.0,38.0,-100.00,ENE,64,1.0,5.0,81,0.00,,,0.02,105.000000,,2013-04-10 00:52:00,
2013-04-09 18:02:00,43.0,38.0,-100.00,ENE,64,1.0,5.0,81,0.00,,,0.02,105.000000,,2013-04-10 01:02:00,
2013-04-09 18:12:00,43.0,38.0,-100.00,ENE,64,1.0,5.0,81,0.00,,,0.02,105.000000,,2013-04-10 01:12:00,
2013-04-09 18:22:00,43.0,38.0,-100.00,ENE,64,1.0,5.0,81,0.00,,,0.02,105.000000,,2013-04-10 01:22:00,
2013-04-09 18:53:00,43.0,36.0,-100.00,East,86,1.0,7.0,77,0.00,,,0.02,122.000000,,2013-04-10 01:53:00,
2013-04-09 19:02:00,43.0,36.0,-100.00,East,86,1.0,7.0,77,0.00,,,0.02,122.000000,,2013-04-10 02:02:00,
2013-04-09 19:12:00,43.0,36.0,-100.00,East,86,1.0,7.0,77,0.00,,,0.02,122.000000,,2013-04-10 02:12:00,
2013-04-09 19:21:00,43.0,36.0,-100.00,East,86,1.0,7.0,77,0.00,,,0.02,122.000000,,2013-04-10 02:21:00,
2013-04-09 19:52:00,42.0,38.0,-100.00,ESE,121,2.0,6.0,85,0.00,,,0.02,52.000000,,2013-04-10 02:52:00,
2013-04-09 20:02:00,42.0,38.0,-100.00,ESE,121,2.0,6.0,85,0.00,,,0.02,52.000000,,2013-04-10 03:02:00,
2013-04-09 20:12:00,42.0,38.0,-100.00,ESE,121,2.0,6.0,85,0.00,,,0.02,52.000000,,2013-04-10 03:12:00,
2013-04-09 20:22:00,42.0,38.0,-100.00,ESE,121,2.0,6.0,85,0.00,,,0.02,52.000000,,2013-04-10 03:22:00,
2013-04-09 20:53:00,43.0,39.0,-100.00,NNE,29,1.0,12.0,87,0.00,,,0.02,5.000000,,2013-04-10 03:53:00,
2013-04-09 21:03:00,43.0,39.0,-100.00,NNE,29,1.0,12.0,87,0.00,,,0.02,5.000000,,2013-04-10 04:03:00,
2013-04-09 21:13:00,43.0,39.0,-100.00,NNE,29,1.0,12.0,87,0.00,,,0.02,5.000000,,2013-04-10 04:13:00,
2013-04-09 21:22:00,43.0,39.0,-100.00,NNE,29,1.0,12.0,87,0.00,,,0.02,5.000000,,2013-04-10 04:22:00,
2013-04-09 21:53:00,43.0,41.0,-100.00,ENE,68,2.0,7.0,92,0.00,,,0.02,0.000000,,2013-04-10 04:53:00,
2013-04-09 22:02:00,43.0,41.0,-100.00,ENE,68,2.0,7.0,92,0.00,,,0.02,0.000000,,2013-04-10 05:02:00,
2013-04-09 22:12:00,43.0,41.0,-100.00,ENE,68,2.0,7.0,92,0.00,,,0.02,0.000000,,2013-04-10 05:12:00,
2013-04-09 22:22:00,43.0,41.0,-100.00,ENE,68,2.0,7.0,92,0.00,,,0.02,0.000000,,2013-04-10 05:22:00,
2013-04-09 22:53:00,43.0,41.0,-100.00,SSW,206,3.0,14.0,93,0.01,,,0.03,0.000000,,2013-04-10 05:53:00,
2013-04-09 23:02:00,43.0,41.0,-100.00,SSW,206,3.0,14.0,93,0.01,,,0.03,0.000000,,2013-04-10 06:02:00,
2013-04-09 23:12:00,43.0,41.0,-100.00,SSW,206,3.0,14.0,93,0.01,,,0.03,0.000000,,2013-04-10 06:12:00,
2013-04-09 23:22:00,43.0,41.0,-100.00,SSW,206,3.0,14.0,93,0.01,,,0.03,0.000000,,2013-04-10 06:22:00,
2013-04-09 23:52:00,44.0,42.0,-100.00,South,185,5.0,15.0,92,0.00,,,0.03,0.000000,,2013-04-10 06:52:00,